Location: Beaver Brook Station
(42.3793°N, 71.2203°W)
Time: 05:12:41
(UTC+00:00)

X-37B - Pass Details

Date: 27 January 2021
Orbit: 383 x 391 km, 45.0° (Epoch: 27 February)

Event Time Altitude Azimuth Distance (km) Brightness Sun altitude
Rises 00:16:32 0° 287° (WNW) 2,276 5.6 -26.7°
Reaches altitude 10° 00:18:37 10° 287° (WNW) 1,421 4.3 -27.1°
Enters shadow 00:19:36 18° 286° (WNW) 1,024 3.4 -27.3°
